Location: Newark
(34.9500°N, 139.9667°E)
Time: 18:51:57
(UTC+00:00)

Altair - Pass Details

Date: 10 December 2019
Orbit: 1502 x 1682 km, 47.2° (Epoch: 28 January)

Event Time Altitude Azimuth Distance (km) Brightness Sun altitude
Rises 10:55:22 0° 226° (SW) 4,825 10.6 -41.5°
Reaches altitude 10° 10:58:31 10° 225° (SW) 3,817 9.9 -42.2°
Enters shadow 11:04:40 45° 217° (SW) 2,047 8.1 -43.4°
